Flag for Germany Weather past 2 weeks in Ansbach, Bavaria, Germany

Now
48 °F

Low clouds.


Feels Like: 48 °F
Forecast: 37 / 53 °F
Wind: 2 mph from South

Location: Ansbach / Katterbach

Current Time: Oct 25, 2014 at 4:50:05 PM

Latest Report: Oct 25, 2014 at 4:03 PM


Visibility: N/A

Pressure: 30.17 "Hg

Humidity: 94%

Dew point: 46 °F

Location of AnsbachLocation

Historic Weather in Ansbach — Graph

°F

Ansbach temperature yesterday

Maximum temperature yesterday: 54 °F (at 2:58 PM)
Minimum temperature yesterday: 43 °F (at 8:58 AM)
Average temperature yesterday: 47 °F

Past Weeks' High & Low Weather Summary

 TemperatureHumidityPressure
High68 °F (Oct 19, 4:58 PM)100% (Oct 10, 5:58 PM)30.32 "Hg (Oct 10, 5:58 PM)
Low37 °F (Oct 25, 5:58 AM)63% (Oct 24, 1:58 PM)29.62 "Hg (Oct 21, 7:58 PM)
Average53 °F93%30.03 "Hg
* Reported Oct 10 2:58 PM — Oct 25 2:59 PM, Ansbach, Weather by CustomWeather, © 2014

Note: Actual official high and low records may vary slightly from our data, if they occured in-between our weather recording intervals... More about our weather records

Advertising

Ansbach weather history for previous 24 hours

 ConditionsComfort  
Time TempWeatherWind HumidityBarometerVisibility
2:59 PM
Oct 25
46 °FLow clouds.3 mph100%30.16 "HgN/A
2:58 PM46 °FOvercast.5 mph100%30.23 "HgN/A
1:58 PM46 °FDrizzle. Broken clouds.5 mph99%30.23 "HgN/A
1:03 PM46 °FLight rain. Broken clouds.5 mph100%30.16 "HgN/A
11:59 AM45 °FLow clouds.3 mph100%30.16 "HgN/A
10:58 AM43 °FPartly sunny.6 mph100%30.22 "HgN/A
9:58 AM42 °FFog.5 mph100%30.22 "Hg4 mi
8:58 AM41 °FFog.5 mph100%30.20 "Hg2 mi
7:58 AM39 °FFog.5 mph100%30.19 "Hg1 mi
6:58 AM40 °FFog.5 mph100%30.18 "Hg4 mi
6:03 AM37 °FFog.2 mph100%30.12 "Hg1 mi
5:58 AM37 °FFog.2 mph100%30.19 "Hg1 mi
4:58 AM41 °FFog.5 mph100%30.18 "Hg5 mi
3:58 AM39 °FFog.5 mph100%30.17 "Hg6 mi
2:58 AM40 °FClear.3 mph100%30.19 "HgN/A
1:58 AM41 °FClear.5 mph100%30.19 "HgN/A
12:58 AM42 °FOvercast.3 mph99%30.19 "HgN/A
11:58 PM
Oct 24
43 °FClear.5 mph100%30.20 "HgN/A
10:58 PM43 °FClear.3 mph100%30.21 "HgN/A
9:58 PM45 °FClear.2 mph93%30.22 "HgN/A
8:58 PM45 °FClear.3 mph90%30.21 "HgN/A
7:58 PM47 °FClear.3 mph83%30.21 "HgN/A
6:58 PM48 °FSunny.3 mph78%30.20 "HgN/A
5:58 PM50 °FSunny.5 mph71%30.20 "HgN/A
4:58 PM52 °FPassing clouds.6 mph68%30.21 "HgN/A
Weather by CustomWeather, © 2014

See weather overviewHow to use our weather pages